Terug naar catalogus

COSMOS 1275 DEB

ActiefPO
NORAD 13464·DEBRIS·🇷🇺 Russia

Gelanceerd Jun 4, 1981 vanaf Plesetsk Cosmodrome

Loading…

Volgende Passages (komende 24 uur)

TLE

VersSource: Space-Track

Epoch: Sep 14, 2026, 04:13 UTC

1 13464U 81053FL  26257.17623191  .00003143  00000-0  91775-3 0  9990
2 13464  82.9074 333.7083 0025874 120.0929 268.1654 14.43648551269859

Volg COSMOS 1275 DEB in realtime met AllMySat

Download on the App Store